When you browse on this site, cookies collect data to enhance your experience and personalize the content and advertising you see.
Visit our Privacy Policy to learn more. By continuing to use the site, you agree to this use of cookies and data.

Hourly Weather Verhnevodyanoy

Today, 15 July, Wednesday

Time Temperature Precipitation Wind Pressure Humidity
00:00 +23°C° 0 mm 4 mps 746 mmHg 63%
01:00 +22°C° 0 mm 4 mps 746 mmHg 63%
02:00 +22°C° 0 mm 4 mps 747 mmHg 63%
03:00 +21°C° 0 mm 5 mps 747 mmHg 62%
04:00 +21°C° 0 mm 5 mps 748 mmHg 64%
05:00 +20°C° 0 mm 5 mps 748 mmHg 66%
06:00 +20°C° 0 mm 5 mps 748 mmHg 68%
07:00 +22°C° 0 mm 5 mps 749 mmHg 61%
08:00 +23°C° 0 mm 5 mps 749 mmHg 54%
09:00 +25°C° 0 mm 5 mps 749 mmHg 47%
10:00 +27°C° 0 mm 5 mps 749 mmHg 42%
11:00 +28°C° 0 mm 5 mps 749 mmHg 37%
12:00 +29°C° 0 mm 5 mps 749 mmHg 33%
13:00 +29°C° 0 mm 5 mps 749 mmHg 31%
14:00 +30°C° 0 mm 5 mps 749 mmHg 30%
15:00 +32°C° 0 mm 5 mps 749 mmHg 28%
16:00 +30°C° 0 mm 4 mps 748 mmHg 28%
17:00 +30°C° 0 mm 4 mps 748 mmHg 28%
18:00 +29°C° 0 mm 3 mps 748 mmHg 28%
19:00 +28°C° 0 mm 3 mps 748 mmHg 33%
20:00 +26°C° 0 mm 3 mps 749 mmHg 37%
21:00 +24°C° 0 mm 3 mps 749 mmHg 42%
22:00 +22°C° 0 mm 3 mps 749 mmHg 45%
23:00 +22°C° 0 mm 3 mps 748 mmHg 49%

Tomorrow, 16 July, Thursday

Time Temperature Precipitation Wind Pressure Humidity
00:00 +21°C° 0 mm 3 mps 748 mmHg 53%
01:00 +21°C° 0 mm 3 mps 748 mmHg 55%
02:00 +20°C° 0 mm 3 mps 748 mmHg 58%
03:00 +20°C° 0 mm 3 mps 748 mmHg 60%
04:00 +20°C° 0 mm 3 mps 748 mmHg 58%
05:00 +21°C° 0 mm 3 mps 748 mmHg 57%
06:00 +21°C° 0 mm 2 mps 748 mmHg 55%
07:00 +23°C° 0 mm 2 mps 749 mmHg 51%
08:00 +24°C° 0 mm 2 mps 749 mmHg 47%
09:00 +25°C° 0 mm 2 mps 749 mmHg 43%
10:00 +26°C° 0 mm 1 mps 749 mmHg 40%
11:00 +28°C° 0 mm 1 mps 748 mmHg 38%
12:00 +29°C° 0 mm 1 mps 748 mmHg 35%
13:00 +29°C° 0 mm 1 mps 748 mmHg 34%
14:00 +30°C° 0 mm 2 mps 748 mmHg 33%
15:00 +30°C° 0 mm 2 mps 747 mmHg 32%
16:00 +30°C° 0 mm 2 mps 747 mmHg 32%
17:00 +30°C° 0 mm 2 mps 747 mmHg 33%
18:00 +30°C° 0 mm 2 mps 747 mmHg 33%
19:00 +28°C° 0 mm 1 mps 747 mmHg 36%
20:00 +27°C° 0 mm 1 mps 747 mmHg 39%
21:00 +24°C° 0 mm 0 mps 747 mmHg 42%
22:00 +25°C° 0 mm 2 mps 746 mmHg 42%
23:00 +25°C° 0 mm 3 mps 746 mmHg 42%

Day after tomorrow, 17 July, Friday

Time Temperature Precipitation Wind Pressure Humidity
00:00 +23°C° 0 mm 4 mps 746 mmHg 42%
01:00 +23°C° 0 mm 4 mps 746 mmHg 40%
02:00 +23°C° 0 mm 5 mps 746 mmHg 39%
03:00 +23°C° 0 mm 5 mps 746 mmHg 37%
04:00 +23°C° 0 mm 5 mps 746 mmHg 38%
05:00 +23°C° 0 mm 6 mps 746 mmHg 39%
06:00 +23°C° 0 mm 6 mps 746 mmHg 41%
07:00 +24°C° 0 mm 6 mps 746 mmHg 40%
08:00 +26°C° 0 mm 6 mps 746 mmHg 39%
09:00 +27°C° 0 mm 5 mps 746 mmHg 38%
10:00 +27°C° 0 mm 5 mps 746 mmHg 37%
11:00 +28°C° 0 mm 5 mps 746 mmHg 36%
12:00 +28°C° 0 mm 4 mps 746 mmHg 34%
13:00 +30°C° 0 mm 5 mps 745 mmHg 32%
14:00 +32°C° 0 mm 5 mps 745 mmHg 30%
15:00 +33°C° 0 mm 5 mps 745 mmHg 28%
16:00 +32°C° 0 mm 6 mps 745 mmHg 30%
17:00 +32°C° 0 mm 6 mps 745 mmHg 32%
18:00 +30°C° 0 mm 7 mps 745 mmHg 33%
19:00 +29°C° 0.1 mm 6 mps 745 mmHg 37%
20:00 +27°C° 0.1 mm 6 mps 745 mmHg 40%
21:00 +26°C° 0.1 mm 6 mps 746 mmHg 44%
22:00 +24°C° 0 mm 6 mps 746 mmHg 47%
23:00 +25°C° 0 mm 5 mps 746 mmHg 50%

18 July, Saturday

Time Temperature Precipitation Wind Pressure Humidity
00:00 +23°C° 0 mm 5 mps 746 mmHg 52%
01:00 +22°C° 0.2 mm 4 mps 746 mmHg 58%
02:00 +22°C° 0.2 mm 4 mps 747 mmHg 63%
03:00 +21°C° 0.2 mm 3 mps 747 mmHg 68%
04:00 +21°C° 0.4 mm 4 mps 747 mmHg 68%
05:00 +20°C° 0.4 mm 5 mps 747 mmHg 69%
06:00 +20°C° 0.4 mm 5 mps 748 mmHg 69%
07:00 +20°C° 0.2 mm 5 mps 748 mmHg 71%
08:00 +20°C° 0.2 mm 4 mps 748 mmHg 73%
09:00 +20°C° 0.2 mm 4 mps 749 mmHg 74%
10:00 +21°C° 0 mm 4 mps 749 mmHg 72%
11:00 +21°C° 0 mm 3 mps 749 mmHg 69%
12:00 +21°C° 0 mm 3 mps 749 mmHg 66%
13:00 +24°C° 0 mm 3 mps 749 mmHg 59%
14:00 +25°C° 0 mm 3 mps 749 mmHg 52%
15:00 +27°C° 0 mm 3 mps 749 mmHg 45%
16:00 +28°C° 0 mm 3 mps 749 mmHg 43%
17:00 +28°C° 0 mm 2 mps 749 mmHg 40%
18:00 +29°C° 0 mm 2 mps 749 mmHg 38%
19:00 +27°C° 0 mm 1 mps 749 mmHg 43%
20:00 +26°C° 0 mm 1 mps 749 mmHg 47%
21:00 +22°C° 0 mm 0 mps 749 mmHg 52%
22:00 +24°C° 0 mm 1 mps 749 mmHg 53%
23:00 +23°C° 0 mm 1 mps 749 mmHg 54%

19 July, Sunday

Time Temperature Precipitation Wind Pressure Humidity
00:00 +23°C° 0 mm 1 mps 749 mmHg 55%
01:00 +21°C° 0 mm 2 mps 749 mmHg 54%
02:00 +21°C° 0 mm 3 mps 749 mmHg 53%
03:00 +21°C° 0 mm 3 mps 749 mmHg 52%
04:00 +21°C° 0 mm 3 mps 749 mmHg 51%
05:00 +21°C° 0 mm 4 mps 749 mmHg 50%
06:00 +22°C° 0 mm 4 mps 749 mmHg 49%
07:00 +25°C° 0 mm 4 mps 749 mmHg 44%
08:00 +28°C° 0 mm 5 mps 749 mmHg 38%
09:00 +30°C° 0 mm 5 mps 749 mmHg 32%
10:00 +32°C° 0 mm 5 mps 749 mmHg 30%
11:00 +33°C° 0 mm 5 mps 748 mmHg 28%
12:00 +34°C° 0 mm 4 mps 748 mmHg 26%
13:00 +34°C° 0 mm 4 mps 748 mmHg 25%
14:00 +35°C° 0 mm 4 mps 747 mmHg 25%
15:00 +35°C° 0 mm 4 mps 747 mmHg 24%
16:00 +35°C° 0 mm 4 mps 746 mmHg 24%
17:00 +35°C° 0 mm 4 mps 746 mmHg 25%
18:00 +34°C° 0 mm 4 mps 746 mmHg 25%
19:00 +33°C° 0 mm 3 mps 746 mmHg 28%
20:00 +30°C° 0 mm 3 mps 746 mmHg 31%
21:00 +28°C° 0 mm 3 mps 745 mmHg 33%
22:00 +27°C° 0 mm 3 mps 745 mmHg 34%
23:00 +27°C° 0 mm 4 mps 745 mmHg 34%

20 July, Monday

Time Temperature Precipitation Wind Pressure Humidity
00:00 +26°C° 0 mm 4 mps 745 mmHg 35%
01:00 +26°C° 0 mm 4 mps 745 mmHg 36%
02:00 +25°C° 0 mm 4 mps 744 mmHg 37%
03:00 +25°C° 0 mm 4 mps 744 mmHg 38%
04:00 +25°C° 0 mm 4 mps 744 mmHg 39%
05:00 +25°C° 0 mm 5 mps 744 mmHg 40%
06:00 +25°C° 0 mm 5 mps 744 mmHg 41%
07:00 +27°C° 0 mm 4 mps 744 mmHg 37%
08:00 +29°C° 0 mm 4 mps 744 mmHg 33%
09:00 +31°C° 0 mm 3 mps 744 mmHg 29%
10:00 +33°C° 0 mm 3 mps 744 mmHg 27%
11:00 +34°C° 0 mm 2 mps 744 mmHg 25%
12:00 +35°C° 0 mm 2 mps 743 mmHg 23%
13:00 +35°C° 0 mm 2 mps 743 mmHg 24%
14:00 +35°C° 0 mm 2 mps 743 mmHg 24%
15:00 +34°C° 0 mm 2 mps 743 mmHg 25%
16:00 +34°C° 0 mm 2 mps 743 mmHg 26%
17:00 +34°C° 0 mm 2 mps 743 mmHg 27%
18:00 +34°C° 0 mm 2 mps 743 mmHg 28%
19:00 +31°C° 0 mm 2 mps 743 mmHg 32%
20:00 +29°C° 0 mm 2 mps 743 mmHg 36%
21:00 +28°C° 0 mm 3 mps 744 mmHg 41%
22:00 +27°C° 0 mm 2 mps 744 mmHg 44%
23:00 +26°C° 0 mm 2 mps 744 mmHg 47%
Show more